This demonstration page uses our WeatherBlox Daily Observations layout. Learn more.

Left ArrowRight Arrow

Hourly Observations for May 17, 2016

Temp ( °F °C ) Dew Point ( °F °C ) Humidity (%) Winds ( mph kmh ) Pressure ( in mb ) Visibility ( mi km ) Precip ( " mm )
12:51 am 00:51 Clear 68 20 24 -4.4 19 19 NW 10 17 29.71 1006 10 16 0.00 0.00
1:51 am 01:51 Clear 67 19.4 28 -2.2 23 23 NNW 9 15 29.70 1006 10 16 0.00 0.00
2:51 am 02:51 Mostly Clear 68 20 30 -1.1 24 24 N 10 17 29.70 1006 10 16 0.00 0.00
3:51 am 03:51 Partly Cloudy 64 17.8 29 -1.7 27 27 NNW 5 7 29.71 1006 10 16 0.00 0.00
4:51 am 04:51 Clear 64 17.8 30 -1.1 28 28 S 5 7 29.72 1006 10 16 0.00 0.00
5:51 am 05:51 Mostly Cloudy 62 16.7 28 -2.2 28 28 Calm 29.74 1007 10 16 0.00 0.00
6:51 am 06:51 Mostly Cloudy 66 18.9 26 -3.3 22 22 E 3 6 29.76 1008 10 16 0.00 0.00
7:51 am 07:51 Mostly Cloudy 71 21.7 29 -1.7 21 21 SSE 5 7 29.76 1008 10 16 0.00 0.00
8:51 am 08:51 Mostly Sunny 75 23.9 31 -0.6 20 20 S 6 9 29.76 1008 10 16 0.00 0.00
9:51 am 09:51 Mostly Sunny 77 25 32 0 19 19 VRB 5 7 29.76 1008 9 14 0.00 0.00
10:51 am 10:51 Sunny 81 27.2 33 0.6 18 18 SSE 8 13 29.74 1007 10 16 0.00 0.00
11:51 am 11:51 Mostly Sunny 82 27.8 37 2.8 20 20 SSW 14 22 29.70 1006 10 16 0.00 0.00
12:02 pm 12:02 Sunny with Nearby Thunderstorms 81 27.2 38 3.3 21 21 SSW 6 9 29.65 1004 10 16 0.00 0.00
12:26 pm 12:26 Partly Cloudy 81 27.2 39 3.9 22 22 SE 12 19 29.62 1003 10 16 0.00 0.00
12:33 pm 12:33 Mostly Cloudy with Nearby Thunderstorms 80 26.7 40 4.4 24 24 VRB 7 11 29.62 1003 10 16 0.00 0.00
12:46 pm 12:46 Mostly Cloudy with Thunderstorms 81 27 39 4 23 23 W 13 20 29.62 1003 10 16 0.00 0.00
12:51 pm 12:51 Cloudy with Thunderstorms 77 25 41 5 28 28 W 25 41 29.70 1006 10 16 0.00 0.00
1:00 pm 13:00 Mostly Cloudy with Nearby Thunderstorms 76 24.4 39 3.9 26 26 WNW 23 37 29.65 1004 10 16 0.00 0.00
1:51 pm 13:51 Cloudy with Light Rain 70 21.1 44 6.7 39 39 N 21 33 29.75 1007 10 16 0.00 0.03
2:05 pm 14:05 Cloudy with Nearby Thunderstorms 69 20.6 47 8.3 45 45 NE 17 28 29.74 1007 10 16 0.00 0.03
2:26 pm 14:26 Mostly Cloudy 73 22.8 43 6.1 34 34 NNE 18 30 29.68 1005 10 16 0.00 0.03
2:34 pm 14:34 Mostly Cloudy with Nearby Thunderstorms 73 22.8 43 6.1 34 34 NNE 12 19 29.71 1006 10 16 0.00 0.03
2:49 pm 14:49 Mostly Cloudy with Light Rain 73 23 48 9 41 41 NNE 15 24 29.65 1004 10 16 0.00 0.03
2:51 pm 14:51 Mostly Cloudy with Light Rain 74 23.3 48 8.9 40 40 NNE 12 19 29.70 1006 10 16 0.00 0.03
3:51 pm 15:51 undefined 79 26.1 38 3.3 23 23 NNE 8 13 29.70 1006 10 16 0.00 0.03
4:51 pm 16:51 Partly Cloudy with Nearby Thunderstorms 73 22.8 47 8.3 40 40 WNW 7 11 29.72 1006 8 13 0.00 0.03
5:20 pm 17:20 undefined 78 25.6 44 6.7 30 30 NE 6 9 29.65 1004 10 16 0.02 0.51
5:51 pm 17:51 Mostly Cloudy 80 26.7 39 3.9 23 23 Calm 29.70 1006 10 16 0.02 0.51
6:51 pm 18:51 Partly Cloudy 77 25 40 4.4 26 26 ESE 8 13 29.71 1006 10 16 0.00 0.00
7:49 pm 19:49 Mostly Cloudy with Nearby Thunderstorms 73 23 41 5 31 31 ENE 16 26 29.71 1006 10 16 0.00 0.03
7:51 pm 19:51 Mostly Cloudy with Nearby Thunderstorms 72 22.2 43 6.1 35 35 E 13 20 29.73 1007 10 16 0.00 0.03
8:07 pm 20:07 Mostly Cloudy 71 21.7 45 7.2 39 39 E 16 26 29.74 1007 10 16 0.00 0.03
8:51 pm 20:51 Partly Cloudy 69 20.6 44 6.7 41 41 ENE 17 28 29.76 1008 10 16 0.00 0.03
9:51 pm 21:51 Mostly Cloudy with Light Rain 67 19.4 45 7.2 45 45 ENE 14 22 29.78 1009 10 16 0.00 0.03
10:51 pm 22:51 Cloudy 67 19.4 44 6.7 44 44 E 14 22 29.81 1010 10 16 0.00 0.03
11:51 pm 23:51 Mostly Clear 61 16.1 50 10 67 67 ENE 13 20 29.85 1011 10 16 0.01 0.25

Powered by AerisWeather